Weather History for Louisburg, NC

Change the Weather History Date:

Wednesday, April 3, 2013

  Actual Average (KRDU) Record (KRDU)
Temperature  
Mean Temperature 47 °F 57 °F  
Max Temperature 59 °F 69 °F 91 °F (1967)
Min Temperature 35 °F 45 °F 25 °F (1992)
Degree Days  
Heating Degree Days 18 9  
Month to date heating degree days 27  
Since 1 July heating degree days 3023  
Cooling Degree Days 0 1  
Month to date cooling degree days 3  
Year to date cooling degree days 15  
Moisture  
Dew Point 22 °F    
Average Humidity 44    
Maximum Humidity 87    
Minimum Humidity 20    
Precipitation  
Precipitation 0.00 in 0.11 in 1.11 in (1915)
Month to date precipitation 0.34  
Year to date precipitation 11.18  
Snow  
Snow 0.00 in 0.00 in 10.00 in (1915)
Month to date snowfall 0.0  
Since 1 July snowfall 6.0  
Snow Depth -    
Sea Level Pressure  
Sea Level Pressure 30.24 in    
Wind  
Wind Speed 2 mph (North)    
Max Wind Speed 10 mph    
Max Gust Speed 16 mph    
Visibility 10 miles    
Events      
T = Trace of Precipitation, MM = Missing Value Source: NWS Daily Summary

Daily Weather History Graph

Daily Weather History Graph

Search for Another Location

Airport:

Trip Planner

Search our weather history database for the weather conditions in past years. The results will help you decide how hot, cold, wet, or windy it might be!

Date:

Astronomy

Apr. 03, 2013 Rise Set
Actual Time 6:56 AM EDT 7:37 PM EDT
Civil Twilight 6:30 AM EDT 8:03 PM EDT
Nautical Twilight 6:00 AM EDT 8:33 PM EDT
Astronomical Twilight 5:28 AM EDT 9:04 PM EDT
Moon 2:23 AM EDT (4/3) 12:58 PM EDT (4/3)
Length of Visible Light 13h 32m
Length of Day
12h 40m
Last Quarter, 45% of the Moon is Illuminated
Apr 3
Last Quarter
Apr 10
New
Apr 18
First Quarter
Apr 25
Full
May 2
Last Quarter

Hourly Weather History & Observations

Time (EDT) Temp. Windchill Dew Point Humidity Pressure Visibility Wind Dir Wind Speed Gust Speed Precip Events Conditions
12:15 AM 35.6 °F - 30.2 °F 81% 30.15 in 10.0 mi Calm Calm - N/A   Clear
12:35 AM 35.6 °F - 28.4 °F 75% 30.16 in 10.0 mi Calm Calm - N/A   Scattered Clouds
12:55 AM 35.6 °F - 30.2 °F 81% 30.16 in 10.0 mi Calm Calm - N/A   Mostly Cloudy
1:15 AM 35.6 °F - 30.2 °F 81% 30.17 in 10.0 mi Calm Calm - N/A   Overcast
1:35 AM 35.6 °F - 32.0 °F 87% 30.18 in 10.0 mi Calm Calm - N/A   Overcast
1:55 AM 39.2 °F - 30.2 °F 70% 30.18 in 10.0 mi Calm Calm - N/A   Overcast
2:15 AM 37.4 °F - 28.4 °F 70% 30.19 in 10.0 mi Calm Calm - N/A   Overcast
2:35 AM 39.2 °F - 28.4 °F 65% 30.20 in 10.0 mi Calm Calm - N/A   Overcast
2:55 AM 39.2 °F 35.9 °F 28.4 °F 65% 30.20 in 10.0 mi North 4.6 mph - N/A   Overcast
3:15 AM 39.2 °F - 26.6 °F 61% 30.22 in 10.0 mi Calm Calm - N/A   Overcast
3:35 AM 41.0 °F 38.0 °F 21.2 °F 45% 30.21 in 10.0 mi North 4.6 mph - N/A   Overcast
3:55 AM 37.4 °F - 26.6 °F 65% 30.21 in 10.0 mi Calm Calm - N/A   Overcast
4:15 AM 39.2 °F 37.0 °F 23.0 °F 52% 30.20 in 10.0 mi North 3.5 mph - N/A   Overcast
4:35 AM 41.0 °F 38.0 °F 21.2 °F 45% 30.20 in 10.0 mi NNE 4.6 mph - N/A   Overcast
4:55 AM 39.2 °F 35.9 °F 21.2 °F 49% 30.21 in 10.0 mi North 4.6 mph - N/A   Overcast
5:15 AM 37.4 °F 34.9 °F 23.0 °F 56% 30.22 in 10.0 mi North 3.5 mph - N/A   Mostly Cloudy
5:35 AM 35.6 °F 32.8 °F 24.8 °F 65% 30.22 in 10.0 mi North 3.5 mph - N/A   Clear
5:55 AM 35.6 °F 32.8 °F 23.0 °F 60% 30.23 in 10.0 mi North 3.5 mph - N/A   Scattered Clouds
6:15 AM 35.6 °F - 26.6 °F 70% 30.23 in 10.0 mi Calm Calm - N/A   Overcast
6:35 AM 35.6 °F - 26.6 °F 70% 30.23 in 10.0 mi Calm Calm - N/A   Overcast
6:55 AM 37.4 °F 34.9 °F 23.0 °F 56% 30.23 in 10.0 mi NNE 3.5 mph - N/A   Overcast
7:15 AM 37.4 °F - 24.8 °F 60% 30.24 in 10.0 mi Calm Calm - N/A   Overcast
7:35 AM 37.4 °F - 24.8 °F 60% 30.25 in 10.0 mi Calm Calm - N/A   Overcast
7:55 AM 37.4 °F - 26.6 °F 65% 30.27 in 10.0 mi Calm Calm - N/A   Overcast
8:15 AM 39.2 °F - 26.6 °F 61% 30.29 in 10.0 mi Calm Calm - N/A   Overcast
8:35 AM 39.2 °F - 26.6 °F 61% 30.28 in 10.0 mi Calm Calm - N/A   Overcast
8:55 AM 42.8 °F 40.1 °F 23.0 °F 46% 30.28 in 10.0 mi NE 4.6 mph - N/A   Scattered Clouds
9:15 AM 42.8 °F 41.1 °F 21.2 °F 42% 30.29 in 10.0 mi NE 3.5 mph - N/A   Scattered Clouds
9:35 AM 44.6 °F 40.7 °F 21.2 °F 39% 30.29 in 10.0 mi NE 6.9 mph - N/A   Clear
9:55 AM 46.4 °F 42.9 °F 19.4 °F 34% 30.30 in 10.0 mi NE 6.9 mph - N/A   Clear
10:15 AM 48.2 °F - 15.8 °F 27% 30.30 in 10.0 mi North 8.1 mph - N/A   Scattered Clouds
10:35 AM 48.2 °F - 15.8 °F 27% 30.30 in 10.0 mi NNE 6.9 mph 16.1 mph N/A   Clear
10:55 AM 50.0 °F - 15.8 °F 26% 30.29 in 10.0 mi North 5.8 mph - N/A   Clear
11:15 AM 50.0 °F - 17.6 °F 28% 30.29 in 10.0 mi NE 8.1 mph - N/A   Clear
11:35 AM 50.0 °F - 17.6 °F 28% 30.28 in 10.0 mi North 9.2 mph - N/A   Clear
11:55 AM 50.0 °F - 17.6 °F 28% 30.28 in 10.0 mi Calm Calm - N/A   Clear
12:15 PM 51.8 °F - 17.6 °F 26% 30.26 in 10.0 mi Calm Calm - N/A   Clear
12:35 PM 51.8 °F - 15.8 °F 24% 30.26 in 10.0 mi Calm Calm - N/A   Clear
12:55 PM 51.8 °F - 17.6 °F 26% 30.25 in 10.0 mi ENE 5.8 mph - N/A   Clear
1:15 PM 51.8 °F - 17.6 °F 26% 30.25 in 10.0 mi North 10.4 mph - N/A   Clear
1:35 PM 53.6 °F - 19.4 °F 26% 30.25 in 10.0 mi NE 4.6 mph - N/A   Clear
1:55 PM 55.4 °F - 21.2 °F 26% 30.24 in 10.0 mi Calm Calm - N/A   Clear
2:15 PM 55.4 °F - 19.4 °F 25% 30.23 in 10.0 mi SW 4.6 mph - N/A   Clear
2:35 PM 55.4 °F - 17.6 °F 23% 30.22 in 10.0 mi Calm Calm - N/A   Clear
2:55 PM 55.4 °F - 19.4 °F 25% 30.21 in 10.0 mi NNE 3.5 mph - N/A   Clear
3:15 PM 57.2 °F - 17.6 °F 21% 30.21 in 10.0 mi SW 4.6 mph - N/A   Clear
3:35 PM 57.2 °F - 19.4 °F 23% 30.21 in 10.0 mi North 5.8 mph - N/A   Clear
3:55 PM 59.0 °F - 17.6 °F 20% 30.21 in 10.0 mi WNW 9.2 mph - N/A   Clear
4:15 PM 59.0 °F - 17.6 °F 20% 30.21 in 10.0 mi Calm Calm - N/A   Clear
4:35 PM 59.0 °F - 17.6 °F 20% 30.21 in 10.0 mi Calm Calm - N/A   Clear
4:55 PM 57.2 °F - 15.8 °F 20% 30.21 in 10.0 mi NNW 4.6 mph - N/A   Clear
5:15 PM 57.2 °F - 17.6 °F 21% 30.22 in 10.0 mi NW 5.8 mph - N/A   Clear
5:35 PM 57.2 °F - 17.6 °F 21% 30.22 in 10.0 mi Calm Calm - N/A   Clear
5:55 PM 57.2 °F - 17.6 °F 21% 30.22 in 10.0 mi NNW 4.6 mph - N/A   Clear
6:15 PM 55.4 °F - 17.6 °F 23% 30.23 in 10.0 mi NNW 3.5 mph - N/A   Clear
6:35 PM 55.4 °F - 17.6 °F 23% 30.23 in 10.0 mi Calm Calm - N/A   Clear
6:55 PM 53.6 °F - 17.6 °F 24% 30.24 in 10.0 mi Calm Calm - N/A   Clear
7:15 PM 53.6 °F - 19.4 °F 26% 30.24 in 10.0 mi Calm Calm - N/A   Clear
7:35 PM 51.8 °F - 21.2 °F 30% 30.24 in 10.0 mi Calm Calm - N/A   Clear
7:55 PM 48.2 °F - 21.2 °F 34% 30.25 in 10.0 mi Calm Calm - N/A   Clear
8:15 PM 46.4 °F - 23.0 °F 40% 30.25 in 10.0 mi Calm Calm - N/A   Clear
8:35 PM 44.6 °F - 23.0 °F 43% 30.26 in 10.0 mi Calm Calm - N/A   Clear
8:55 PM 44.6 °F - 23.0 °F 43% 30.27 in 10.0 mi Calm Calm - N/A   Clear
9:15 PM 44.6 °F - 21.2 °F 39% 30.28 in 10.0 mi Calm Calm - N/A   Clear
9:35 PM 44.6 °F - 23.0 °F 43% 30.29 in 10.0 mi Calm Calm - N/A   Clear
9:55 PM 42.8 °F - 23.0 °F 46% 30.28 in 10.0 mi Calm Calm - N/A   Clear
10:15 PM 42.8 °F - 24.8 °F 49% 30.30 in 10.0 mi Calm Calm - N/A   Clear
10:35 PM 42.8 °F - 23.0 °F 46% 30.30 in 10.0 mi Calm Calm - N/A   Clear
10:55 PM 41.0 °F - 23.0 °F 49% 30.31 in 10.0 mi Calm Calm - N/A   Clear
11:15 PM 41.0 °F - 26.6 °F 57% 30.30 in 10.0 mi Calm Calm - N/A   Clear
11:35 PM 41.0 °F - 24.8 °F 53% 30.31 in 10.0 mi Calm Calm - N/A   Clear
11:55 PM 41.0 °F - 24.8 °F 53% 30.30 in 10.0 mi Calm Calm - N/A   Clear